Weather History for Lanai City, HI

Change the Weather History Date:

Wednesday, April 16, 2014

  Actual Average Record
Temperature  
Mean Temperature 72 °F -  
Max Temperature 79 °F 78 °F 83 °F (1992)
Min Temperature 65 °F 61 °F 56 °F (1952)
Cooling Degree Days 7    
Growing Degree Days 22 (Base 50)    
Moisture  
Dew Point 63 °F    
Average Humidity 77    
Maximum Humidity 90    
Minimum Humidity 56    
Precipitation  
Precipitation 0.00 in - - ()
Sea Level Pressure  
Sea Level Pressure 30.06 in    
Wind  
Wind Speed 26 mph (NE)    
Max Wind Speed 36 mph    
Max Gust Speed 47 mph    
Visibility 10 miles    
Events      
Averages and records for this station are not official NWS values.
T = Trace of Precipitation, MM = Missing Value Source: NWS Daily Summary

Daily Weather History Graph

Daily Weather History Graph

Search for Another Location

Airport:

Trip Planner

Search our weather history database for the weather conditions in past years. The results will help you decide how hot, cold, wet, or windy it might be!

Date:

Astronomy

Apr. 16, 2014 Rise Set
Actual Time 6:08 AM HST 6:47 PM HST
Civil Twilight 5:45 AM HST 7:09 PM HST
Nautical Twilight 5:19 AM HST 7:36 PM HST
Astronomical Twilight 4:52 AM HST 8:03 PM HST
Moon 8:30 PM HST (4/16) 7:12 AM HST (4/16)
Length of Visible Light 13h 24m
Length of Day
12h 38m
Full, 97% of the Moon is Illuminated
Apr 16
Full
Apr 21
Last Quarter
Apr 28
New
May 6
First Quarter
May 14
Full

Hourly Weather History & Observations

Time (HST) Temp. Dew Point Humidity Pressure Visibility Wind Dir Wind Speed Gust Speed Precip Events Conditions
12:56 AM 66.9 °F 63.0 °F 87% 30.06 in 10.0 mi NE 27.6 mph 34.5 mph N/A   Clear
1:56 AM 66.9 °F 63.0 °F 87% 30.03 in 10.0 mi ENE 26.5 mph 34.5 mph N/A   Partly Cloudy
2:56 AM 66.9 °F 61.9 °F 84% 30.02 in 10.0 mi NE 28.8 mph 36.8 mph N/A   Clear
3:56 AM 65.8 °F 63.0 °F 90% 30.01 in 10.0 mi NE 28.8 mph 34.5 mph N/A   Clear
4:56 AM 66.9 °F 63.9 °F 90% 30.03 in 10.0 mi NE 25.3 mph - N/A   Partly Cloudy
5:56 AM 66.9 °F 63.9 °F 90% 30.05 in 10.0 mi ENE 25.3 mph - N/A   Mostly Cloudy
6:21 AM 66.2 °F 62.6 °F 88% 30.09 in 10.0 mi NE 27.6 mph 35.7 mph N/A   Scattered Clouds
6:56 AM 68.0 °F 63.0 °F 84% 30.04 in 10.0 mi NE 35.7 mph 47.2 mph N/A   Clear
7:56 AM 70.9 °F 63.0 °F 76% 30.07 in 10.0 mi NE 28.8 mph 39.1 mph N/A   Clear
8:56 AM 72.9 °F 63.9 °F 73% 30.09 in 10.0 mi NE 28.8 mph 40.3 mph N/A   Clear
9:56 AM 74.8 °F 63.0 °F 66% 30.09 in 10.0 mi NE 21.9 mph 38.0 mph N/A   Clear
10:56 AM 77.9 °F 63.9 °F 62% 30.06 in 10.0 mi NE 27.6 mph 38.0 mph N/A   Clear
11:56 AM 77.9 °F 64.9 °F 64% 30.06 in 10.0 mi NE 28.8 mph 34.5 mph N/A   Clear
12:56 PM 77.9 °F 63.9 °F 62% 30.04 in 10.0 mi NE 27.6 mph 36.8 mph N/A   Clear
1:56 PM 79.0 °F 63.0 °F 58% 30.03 in 10.0 mi NE 25.3 mph 33.4 mph N/A   Clear
2:56 PM 79.9 °F 63.0 °F 56% 30.01 in 10.0 mi ENE 16.1 mph 25.3 mph N/A   Clear
3:56 PM 77.9 °F 64.9 °F 64% 30.01 in 10.0 mi NNE 20.7 mph 25.3 mph N/A   Clear
4:56 PM 75.9 °F 63.9 °F 66% 30.02 in 10.0 mi NE 17.3 mph - N/A   Clear
5:56 PM 72.9 °F 63.0 °F 71% 30.04 in 10.0 mi NE 19.6 mph - N/A   Clear
6:56 PM 68.9 °F 63.9 °F 84% 30.06 in 10.0 mi NE 19.6 mph - N/A   Clear
7:56 PM 68.9 °F 63.9 °F 84% 30.08 in 10.0 mi ENE 23.0 mph 28.8 mph N/A   Clear
8:56 PM 68.9 °F 63.9 °F 84% 30.10 in 10.0 mi NE 21.9 mph 28.8 mph N/A   Clear
9:56 PM 68.0 °F 63.9 °F 87% 30.11 in 10.0 mi NE 20.7 mph - N/A   Clear
10:56 PM 68.0 °F 63.9 °F 87% 30.10 in 10.0 mi NE 23.0 mph - N/A   Clear
11:56 PM 66.9 °F 63.0 °F 87% 30.10 in 10.0 mi ENE 15.0 mph - N/A   Clear